Weather Roundup
Issued by NWS Chicago, IL

Home | Current Version | Previous Version | Graphics & Text | Print | Product List | Glossary On
Versions: 1 2 3 4 5 6 7 8 9 10 11 12 13 14 15 16 17 18 19 20 21 22 23 24 25 26 27 28 29 30 31 32 33 34 35 36 37 38 39 40 41 42 43 44 45 46 47 48 49 50
000
NZUS59 KLOT 192306
HRRLOT

CHICAGO AREA WEATHER ROUNDUP
NATIONAL WEATHER SERVICE CHICAGO/ROMEOVILLE IL
600 PM CDT FRI SEP 19 2014

NOTE: "FAIR" INDICATES FEW OR NO CLOUDS BELOW 12,000 FEET WITH NO
SIGNIFICANT WEATHER AND/OR OBSTRUCTIONS TO VISIBILITY.

* THESE STATIONS ARE NOT UNDER NWS QUALITY CONTROL. THEY ALSO MAY NOT
  REPORT WEATHER SUCH AS PRECIPITATION OR FOG.

ILZ005-006-012>014-019>023-200000-
NORTHEAST ILLINOIS

CITY           SKY/WX    TMP DP  RH WIND       PRES   REMARKS
OHARE          MOCLDY    77  44  30 S16       30.00F
MIDWAY         MOCLDY    75  45  34 S15       30.00F
AURORA         CLEAR     72  44  36 S10       30.01R
LANSING*       CLEAR     70  48  44 S8        30.02F
JOLIET*        PTCLDY    71  46  41 S6        30.02S
WAUKEGAN       PTCLDY    69  45  41 S12       29.98S
DUPAGE AIRPORT CLEAR     70  46  42 S14       30.00S
WHEELING       CLEAR     73  44  35 S17G23    30.01F
KANKAKEE*      CLEAR     71  51  48 S7        30.04S
MORRIS*        PTCLDY    72  48  42 S7        30.01
LEWIS AIRPORT* CLEAR     69  47  44 S9        30.01S
NORTHERLY IS     N/A     72  46  39 S12         N/A
$$

WIZ051-052-058>065-066-070>072-200000-
SOUTHEAST WISCONSIN

CITY           SKY/WX    TMP DP  RH WIND       PRES   REMARKS
MILWAUKEE      MOCLDY    68  52  56 S12       29.97S
KENOSHA*       CLEAR     70  47  43 S13       29.99S
RACINE*        PTCLDY    66  52  60 S12       30.00S
BURLINGTON     CLEAR     68  47  47 S6        29.97S
WAUKESHA       PTCLDY    70  48  46 S7        29.97F
WEST BEND      PTCLDY    70  46  43 S10G18    29.93F
$$

INZ001>003-010>013-019-020-200000-
NORTHWEST INDIANA

CITY           SKY/WX    TMP DP  RH WIND       PRES   REMARKS
GARY*          PTCLDY    73  43  33 S7        30.03F
MICHIGAN CITY* NOT AVBL
RENSSELAER*    NOT AVBL
VALPARAISO     CLEAR     70  44  39 S8        30.05S
$$

LMZ740>746-200000-
SOUTHERN LAKE MICHIGAN

STATION/POSITION TIME  SKY/WX   TEMP WIND        PRES    VSBY
                                AIR  DIR/SP/G
                 (UTC)          (F)  (DEG/KT/KT) (MB)    (MI)
HARRISON CRIB    2300            70  170/ 21/ 25   N/A
BURNHAM HARBOR   2300            72  160/ 14/ 17   N/A
CALUMET HARBOR   2200            73  160/ 10/ 15 1015.2F
BURNS HARBOR     NOT AVBL
MICHIGAN CITY    2300            71  140/  9/ 13   N/A
$$

ABBREVIATIONS USED IN REMARKS
   TC - TEMPERATURE IN CELSIUS
  WCI - WIND CHILL INDEX
   HX - HEAT INDEX
  VSB - VISIBILITY
$$



USA.gov is the U.S. government's official web portal to all federal, state and local government web resources and services.